Regional Weather Roundup
Issued by NWS Columbia, SC

Home | Current Version | Previous Version | Text Only | Print | Product List | Glossary On
Versions: 1 2 3 4 5 6 7 8 9 10 11 12 13 14 15 16 17 18 19 20 21 22 23 24 25 26 27 28 29 30 31 32 33 34 35 36 37 38 39 40 41 42 43 44 45 46 47 48 49 50
197
ASUS42 KCAE 131610
RWRCAE
REGIONAL WEATHER ROUNDUP
NATIONAL WEATHER SERVICE COLUMBIA SC
1100 AM EST SAT FEB 13 2016

NOTE: "FAIR" INDICATES FEW OR NO CLOUDS BELOW 12,000 FEET WITH NO
SIGNIFICANT WEATHER AND/OR OBSTRUCTIONS TO VISIBILITY.

NOT ALL STATIONS ARE QUALITY CONTROLLED BY THE NATIONAL
WEATHER SERVICE. USE DATA WITH CAUTION...ESPECIALLY
DEWPOINT OBSERVATIONS.

SCZ001>056-GAZ040-063>065-077-131700-
...UPSTATE SOUTH CAROLINA...

CITY           SKY/WX    TMP DP  RH WIND       PRES   REMARKS
ANDERSON       SUNNY     39  14  36 VRB3      30.30R
LIBERTY        SUNNY     37  11  33 CALM      30.28R
SPARTANBURG    SUNNY     34   0  23 NW15G23   30.32R WCI  24
CLEMSON        SUNNY     42   7  23 W12       30.30R
GREENVILLE     SUNNY     34   8  33 N16G24    30.30R WCI  24
GREENWOOD      SUNNY     38  14  37 N5        30.33R WCI  34
GREER          SUNNY     33   8  35 N20G29    30.30R WCI  21
ROCK HILL      SUNNY     37   9  31 N12       30.30R WCI  29
CHESTER        SUNNY     36   7  30 N8G17     30.30S WCI  29
LAURENS        SUNNY     37   7  28 NE13G21   30.30S WCI  29


...CENTRAL SOUTH CAROLINA...

CITY           SKY/WX    TMP DP  RH WIND       PRES   REMARKS
COLUMBIA APT   MOSUNNY   42  12  29 NW12      30.30S
COLUMBIA OWENS SUNNY     43  15  32 VRB6      30.32R
MCENTIRE ANGB  SUNNY     42  13  30 N12       30.30R
ORANGEBURG     SUNNY     42  16  34 N8        30.30S
SUMTER SHAW    SUNNY     41  15  35 NW13      30.28R
NEWBERRY       SUNNY     37   7  28 NW12      30.34R WCI  30
AIKEN          FAIR      39  21  48 N7        30.33S WCI  34
BARNWELL       FAIR      45  25  45 NW7       30.31S
CAMDEN         FAIR      39  39 100 N12       30.31R WCI  32
LANCASTER      SUNNY     37   7  28 NW9G16    30.30R WCI  31
WINNSBORO      SUNNY     37  14  38 NW8       30.29S WCI  31


...EASTERN AND COASTAL SOUTH CAROLINA...

CITY           SKY/WX    TMP DP  RH WIND       PRES   REMARKS
N MYRTLE BCH   SUNNY     40  16  37 NW10G18   30.27R WCI  33
CONWAY         FAIR      37  19  48 N7        30.30R HAZE    WCI  32
MARION         FAIR      37  18  44 N12       30.31R WCI  30
HARTSVILLE     FAIR      37  12  35 N8        30.30R WCI  31
FLORENCE       SUNNY     39  16  39 N12       30.30R WCI  32
DARLINGTON     SUNNY     39  16  38 N10G17    30.32R WCI  32
CHARLESTON APT MOSUNNY   47  21  35 NE13      30.28S
MOUNT PLEASANT FAIR      45  25  45 N6        30.28S
WALTERBORO     SUNNY     46  21  36 NW8       30.30S
BEAUFORT       SUNNY     48  28  46 N10       30.30R


...EASTERN GEORGIA...

CITY           SKY/WX    TMP DP  RH WIND       PRES   REMARKS
AUGUSTA BUSH F SUNNY     44  19  36 N8        30.32S
AUGUSTA DANIEL SUNNY     42  18  37 NW8       30.31S
THOMSON        SUNNY     44  22  41 W12       30.36R
WASHINGTON     FAIR      43  18  36 NW8       30.31R
CLAXTON        FAIR      47  28  48 W8        30.32S
SYLVANIA       SUNNY     45  29  54 N5        30.31F
STATESBORO     SUNNY     47  19  32 NW9       30.31S
SAVANNAH       MOSUNNY   47  26  44 NW10      30.30S


...SOUTHERN NORTH CAROLINA...

CITY           SKY/WX    TMP DP  RH WIND       PRES   REMARKS
CHARLOTTE      MOSUNNY   36   5  27 NE8       30.31R WCI  30
MONROE         SUNNY     34   9  35 N10       30.29R WCI  26
WADESBORO      SUNNY     37   6  28 NW9G18    30.32R WCI  30
ROCKINGHAM     SUNNY     35  11  38 N10G18    30.30R WCI  27
RUTHERFORDTON  SUNNY     33   5  31 NE3       30.30R
ASHEVILLE      SUNNY     23   5  46 N15G31    30.26R WCI  10

$$




USA.gov is the U.S. government's official web portal to all federal, state and local government web resources and services.